Regional Weather Roundup
Issued by NWS Sterling, VA

Home | Current Version | Previous Version | Graphics & Text | Print | Product List | Glossary On
Versions: 1 2 3 4 5 6 7 8 9 10 11 12 13 14 15 16 17 18 19 20 21 22 23 24 25 26 27 28 29 30 31 32 33 34 35 36 37 38 39 40 41 42 43 44 45 46 47 48 49 50
000
ASUS41 KLWX 261410
RWRLWX

REGIONAL WEATHER ROUNDUP
NATIONAL WEATHER SERVICE BALTIMORE MD/WASHINGTON DC
1000 AM EDT TUE JUL 26 2016

Note: "FAIR" indicates few or no clouds below 12,000 feet
with no significant weather and/or obstructions to visibility.
 TC=TEMPERATURE CELSIUS

 * =Non NWS site. Station does not report precipitation (e.g. rain,
    snow, etc.), thunder, or fog.

DCZ001-MDZ009-015-VAZ040>042-051-053>054-261500-
WASHINGTON METRO

CITY           SKY/WX    TMP DP  RH WIND       PRES   REMARKS
WASHINGTON NAT PTSUNNY   89  72  56 NW12      29.97S HX  96
DULLES         FAIR      88  70  55 NW9       29.98S HX  93
ANDREWS AFB    MOSUNNY   86  73  66 NW7G70    29.96S HX  93
FT BELVOIR     FAIR      88  72  60 VRB6      29.96S HX  94
COLLEGE PARK*  FAIR      86  72  62 NW5       29.96S HX  92
LEESBURG*      FAIR      86  73  66 NW5       30.00S HX  93
MANASSAS*      SUNNY     88  72  58 N6        29.98S HX  94
GAITHERSBURG*  MOSUNNY   84  72  65 NW6       30.02S

$$

MDZ006>007-011-014-261500-
BALTIMORE METRO

CITY           SKY/WX    TMP DP  RH WIND       PRES   REMARKS
BWI AIRPORT    PTSUNNY   87  71  58 NW5       29.95F HX  93
MD SCIENCE CTR   N/A     89  70  53 MISG      29.95S HX  94
MARTIN STATE   PTSUNNY   88  77  70 NW3       29.97S HX 100
ANNAPOLIS      MOSUNNY   85  75  72 NW5       29.95S HX  93
FORT MEADE*    SUNNY     84  73  70 CALM      29.98F HX  91

$$

MDZ012-015-019>023-261500-
MARYLAND EASTERN SHORE

CITY           SKY/WX    TMP DP  RH WIND       PRES   REMARKS
OCEAN CITY     MOSUNNY   84  75  74 NE6       29.95R HX  92
SALISBURY      MOSUNNY   84  77  79 N6        29.95R HX  94
BAY BRIDGE AP* MOSUNNY   82  75  78 N5        29.95S
CAMBRIDGE*     MOSUNNY   82  75  78 N3        29.95S
EASTON*        MOSUNNY   84  81  89 N5        29.99R HX  98

$$

MDZ017>025-261500-
SOUTHERN MARYLAND

CITY           SKY/WX    TMP DP  RH WIND       PRES   REMARKS
PATUXENT RIVER PTSUNNY   85  76  74 W5        29.95S HX  94
ST INIGOES     SUNNY     87  78  74 NW5       29.95S HX 100
LEONARDTOWN*   NOT AVBL

$$

MDZ003>005-261500-
NORTH CENTRAL MARYLAND

CITY           SKY/WX    TMP DP  RH WIND       PRES   REMARKS
FREDERICK*     SUNNY     84  73  70 CALM      30.01S HX  91
HAGERSTOWN APT PTSUNNY   85  67  54 NW6       30.00S

$$

MDZ501>502-261500-
WESTERN MARYLAND

CITY           SKY/WX    TMP DP  RH WIND       PRES   REMARKS
OAKLAND*       CLOUDY    70  68  94 W3        30.14S
CUMBERLAND*    CLOUDY    81  72  74 CALM      30.06S

$$

VAZ025>031-261500-
SHENANDOAH VALLEY

CITY           SKY/WX    TMP DP  RH WIND       PRES   REMARKS
WINCHESTER*    FAIR      82  72  69 NW10      30.01S
FRONT ROYAL*   FAIR      84  73  70 CALM      30.01S HX  91
LURAY*         FAIR      81  75  83 CALM      30.02F
NEW MARKET*    FAIR     N/A N/A N/A CALM      30.01S
STAUNTON*      FAIR      81  72  74 CALM      30.06S
WAYNESBORO*    FAIR      83  70  64 NW5       30.06S

$$

WVZ021-048>050-054>055-261500-
EASTERN WEST VIRGINIA PANHANDLE

CITY           SKY/WX    TMP DP  RH WIND       PRES   REMARKS
MARTINSBURG    FAIR      85  70  60 NW6       29.99F
PETERSBURG*    FAIR      87  72  61 CALM      30.03S HX  92

$$

VAZ036>039-050-261500-
CENTRAL FOOTHILLS

CITY           SKY/WX    TMP DP  RH WIND       PRES   REMARKS
CHARLOTTESVILL FAIR      90  74  59 CALM      30.00S HX  99
CULPEPER*      FAIR      87  76  70 CALM      29.99S HX  96
ORANGE*          N/A     88  73  62 CALM      30.01R HX  96
GORDONSVILLE*  FAIR      87  76  71 CALM      29.99R HX  97
WARRENTON*     FAIR      89  69  51 N6        29.98S HX  93

$$

VAZ055>057-261500-
NORTH AND CENTRAL PIEDMONT

CITY           SKY/WX    TMP DP  RH WIND       PRES   REMARKS
FREDERICKSBRG* FAIR      89  74  61 N7        29.96S HX  97
STAFFORD*      FAIR      89  72  57 N5        30.01S HX  95

$$

NCZ024-NYZ072-PAZ021-071-VAZ022-071-261500-
OTHER REGIONAL OBSERVATIONS

CITY           SKY/WX    TMP DP  RH WIND       PRES   REMARKS
NEW YORK CITY  SUNNY     79  68  69 VRB6      29.94F
PHILADELPHIA   PTSUNNY   84  70  62 N9        29.95S
PITTSBURGH     PTSUNNY   80  66  62 N5        30.05S
ROANOKE        FAIR     N/A N/A N/A W7        30.07S
RICHMOND       PTSUNNY   88  76  67 VRB5      29.97S HX  99
RALEIGH        PTSUNNY   85  73  67 W8        30.02S HX  91

$$

ANZ530>537-261500-
MARINE OBSERVATIONS

STATION/POSITION TIME  TEMP    WIND        PRES
                       AIR SEA DIR/SP/G
                 (UTC) (F)     (DEG/KT/KT) (MB)
THOMAS PT LIGHT  1400   82 83   20/  6/  6 1015.6F
BALT KEY BRIDGE  1348   84     270/  2/  2 1014.3S
COVE POINT       1348   82      10/  5/ 10 1014.9R
LEWISETTA        1348   84 85  360/  7/  9 1013.9R
SOLOMONS ISLAND  1348   85 84  260/  4/  5   N/A
PINEY POINT      1348          350/  7/  8   N/A

$$




USA.gov is the U.S. government's official web portal to all federal, state and local government web resources and services.